Location: Unspecified
(0.0000°N, 0.0000°E)
Time: 16:46:42
(UTC+02:00)

Tiangong 1 - Visible Passes

Search period start: 24 July 2016 00:00
Search period end: 03 August 2016 00:00
Orbit: 365 x 386 km, 42.8° (Epoch: 23 July)

Date Brightness Start Highest point End Pass type
(mag) Time Alt. Az. Time Alt. Az. Time Alt. Az.
24 Jul 1.4 07:19:44 13° SW 07:22:21 60° SE 07:25:24 10° NE visible
25 Jul 3.6 06:20:43 17° ESE 06:20:43 17° ESE 06:22:13 10° E visible
26 Jul 1.3 06:53:43 46° WNW 06:53:56 48° NW 06:56:54 10° NNE visible
28 Jul 3.9 06:27:27 12° N 06:27:27 12° N 06:27:45 10° N visible
